Content
SEND FEEDBACK

Daily
Averages
Monthly
Summary
United States of America

SPRINGFIELD, MISSOURI


Home > North America > United States > Missouri
Elevation: 386 meters     Latitude: 37 14N     Longitude: 093 23W

WEATHER
 
SELECT A DAY
Number of Records: 205,420;   Date Range: 1/1/95 - 8/30/14
 
SHARE

PRINT THIS DATA

[ ← Previous Day ]
WEATHER ALMANAC - 5 FEBRUARY, 2013
[ Next Day → ]
[ °F ]   °C
Weather ElementAverageHighLow
Temperature6.1 °C16.1 °C (3:52 pm)-2.8 °C (5:52 am)
Dewpoint-1.4 °C2.2 °C (9:52 am)-3.9 °C (4:52 am)
Humidity63.9 %92 % (1:52 am)32 % (11:52 am)
Barometer1015.9 hPa1019 hPa (9:52 pm)1013.5 hPa (1:52 am)
Wind Speed10.9 km/h25.9 km/h (1:52 pm)
Wind Gust35.2 km/h (1:52 pm)
Weather ElementAverage
Visibility15.3 km
Wind DirectionSSE (164.3 °)

Weather ElementTotal
Precipitation---
Heating Degree Days11.7 (Base 18.3)
Averaged from 23 records on 5 February, 2013
WEATHER CONDITIONS BREAKOUT
WIND DIRECTION BREAKOUT
WEATHER BY HOUR - 5 FEBRUARY, 2013
[ °F ]   °C
Local TimeTemperatureDewpointHumidityBarometerVisibilityWind DirectionWind SpeedGust SpeedPrecipitationEventsConditions
1:52 AM-1.7 °C-2.8 °C92 %1013.5 hPa16.1 kmSouth (180°)7.4 km/hClear
2:52 AM-1.7 °C-3.3 °C89 %1013.5 hPa12.9 kmSouth (180°)5.6 km/hClear
3:52 AM-2.2 °C-3.3 °C92 %1013.5 hPa14.5 kmSouth (190°)7.4 km/hClear
4:52 AM-2.2 °C-3.9 °C88 %1013.9 hPa12.9 kmCalmClear
5:52 AM-2.8 °C-3.9 °C92 %1014.2 hPa12.9 kmSouth (170°)7.4 km/hClear
6:52 AM-1.7 °C-3.3 °C89 %1014.6 hPa12.9 kmNorthClear
7:52 AM-0.6 °C-1.7 °C92 %1014.9 hPa12.9 kmSouth (170°)9.3 km/hClear
8:52 AM2.8 °C0.6 °C86 %1015.6 hPa16.1 kmSouth (180°)11.1 km/hClear
9:52 AM7.8 °C2.2 °C68 %1015.9 hPa16.1 kmSSW (210°)14.8 km/hClear
10:52 AM12.2 °C1.7 °C49 %1015.9 hPa16.1 kmSW (230°)16.7 km/hClear
11:52 AM15.6 °C-1.1 °C32 %1015.6 hPa16.1 kmWest (260°)24.1 km/hClear
12:52 PM15.6 °C-1.1 °C32 %1015.2 hPa16.1 kmWNW (290°)24.1 km/hClear
1:52 PM15.6 °C-0.6 °C33 %1015.2 hPa16.1 kmWNW (300°)25.9 km/h35.2 km/hClear
2:52 PM15.6 °C0.6 °C36 %1015.6 hPa16.1 kmNW (310°)13 km/hClear
3:52 PM16.1 °C-0.6 °C32 %1015.6 hPa16.1 kmNNW (330°)22.2 km/hClear
4:52 PM14 °C-1 °C36 %1015.6 hPa16.1 kmNNW (330°)16.7 km/hClear
5:52 PM8.9 °C-1.1 °C50 %1016.6 hPa16.1 kmNNW (330°)14.8 km/hClear
6:52 PM8.9 °C-1.7 °C48 %1017.3 hPa16.1 kmCalmClear
7:52 PM5.6 °C-1.7 °C60 %1017.9 hPa16.1 kmCalmClear
8:52 PM2.8 °C-1.7 °C73 %1018.6 hPa16.1 kmCalmClear
9:52 PM1.1 °C-2.8 °C75 %1019 hPa16.1 kmCalmClear
10:52 PM5.6 °C-1.7 °C60 %1019 hPa16.1 kmNE (50°)7.4 km/hClear
11:52 PM5 °C-1.1 °C65 %1018.6 hPa16.1 kmENE (70°)11.1 km/hClear
Hourly data recorded from KSGF, located 0 kilometers away from Springfield, Missouri







STORIES FROM OUR PARTNERS